Tracking 31030 objects as of 17-Jul-2025
HD Live streaming from Space Station
objects crossing your sky now

STARLINK-32874

Track STARLINK-32874 now!
10-day predictions
STARLINK-32874 is classified as:


NORAD ID: 62954
Int'l Code: 2025-029G
Perigee: 481.5 km
Apogee: 483.2 km
Inclination: 53.2 °
Period: 94.1 minutes
Semi major axis: 6853 km
RCS: Unknown
Launch date: February 11, 2025
Source: United States (US)
Launch site: AIR FORCE WESTERN TEST RANGE (AFWTR)
Your satellite tracking list
Your tracking list is empty




NASA's NSSDC Master Catalog

Two Line Element Set (TLE):
1 62954U 25029G   25197.85112111  .00007831  00000-0  27623-3 0  9990
2 62954  53.1576 245.4918 0001275  81.4726 278.6419 15.30201067 25257
Source of the keplerian elements: AFSPC